Total_Precipitation_Accumulation
0.52 0.40 0.45 0.46 0.35 0.44 0.73 0.73 0.75 0.46 0.34 0.33 0.31 0.28 0.24 0.26 0.27 0.27 0.28 0.30 0.34 0.37 0.40 0.43 0.41 0.41 0.44 0.50 0.57 0.59 0.60 0.67 0.71 0.72 0.76 0.86 0.90 0.86 0.86 0.88 0.94 0.98 0.99 1.04
0.53 0.33 0.33 0.36 0.29 0.33 0.42 0.45 0.51 0.40 0.36 0.26 0.25 0.23 0.22 0.24 0.23 0.21 0.22 0.24 0.25 0.30 0.36 0.39 0.37 0.37 0.37 0.40 0.45 0.47 0.48 0.53 0.60 0.67 0.76 0.86 0.93 0.91 0.87 0.85 0.90 0.97 0.96 1.02
0.49 0.25 0.35 0.39 0.30 0.35 0.38 0.37 0.43 0.46 0.38 0.24 0.23 0.21 0.22 0.23 0.20 0.17 0.18 0.18 0.19 0.22 0.28 0.29 0.29 0.31 0.34 0.36 0.39 0.42 0.41 0.43 0.49 0.62 0.72 0.78 0.84 0.88 0.89 0.90 0.99 1.09 1.09 1.10
0.55 0.37 0.42 0.26 0.19 0.24 0.29 0.32 0.34 0.33 0.25 0.19 0.20 0.21 0.21 0.20 0.18 0.16 0.15 0.14 0.15 0.18 0.21 0.21 0.22 0.24 0.26 0.27 0.33 0.42 0.45 0.47 0.51 0.57 0.67 0.78 0.82 0.88 0.93 0.96 1.04 1.13 1.18 1.20
0.64 0.46 0.25 0.13 0.11 0.16 0.26 0.31 0.21 0.19 0.16 0.12 0.13 0.14 0.15 0.17 0.15 0.15 0.15 0.14 0.14 0.16 0.17 0.16 0.18 0.21 0.21 0.22 0.28 0.36 0.43 0.47 0.48 0.52 0.62 0.74 0.84 0.91 0.96 1.00 1.05 1.11 1.10 1.07
0.68 0.54 0.28 0.14 0.06 0.08 0.21 0.39 0.17 0.12 0.12 0.11 0.13 0.19 0.17 0.15 0.15 0.13 0.13 0.17 0.17 0.16 0.16 0.16 0.18 0.20 0.23 0.25 0.29 0.37 0.40 0.45 0.47 0.50 0.58 0.68 0.78 0.87 0.92 0.94 0.94 0.94 0.93 0.88
0.54 0.51 0.21 0.09 0.05 0.08 0.33 0.47 0.19 0.13 0.12 0.13 0.15 0.17 0.14 0.11 0.10 0.11 0.13 0.17 0.22 0.24 0.25 0.26 0.28 0.29 0.30 0.31 0.34 0.38 0.41 0.46 0.49 0.51 0.57 0.65 0.70 0.73 0.76 0.74 0.72 0.71 0.70 0.68
0.30 0.44 0.25 0.11 0.12 0.21 0.29 0.20 0.15 0.14 0.14 0.17 0.19 0.16 0.14 0.12 0.10 0.11 0.14 0.17 0.22 0.27 0.29 0.32 0.33 0.35 0.36 0.38 0.40 0.40 0.42 0.47 0.51 0.53 0.52 0.53 0.55 0.58 0.57 0.56 0.56 0.55 0.56 0.56
0.20 0.22 0.16 0.14 0.18 0.21 0.21 0.17 0.13 0.13 0.13 0.15 0.21 0.21 0.19 0.16 0.13 0.11 0.13 0.16 0.19 0.23 0.24 0.25 0.30 0.36 0.40 0.41 0.40 0.39 0.41 0.43 0.43 0.44 0.43 0.44 0.44 0.45 0.47 0.49 0.50 0.52 0.52 0.53
0.17 0.14 0.12 0.13 0.15 0.14 0.14 0.13 0.12 0.12 0.13 0.15 0.16 0.20 0.19 0.18 0.17 0.16 0.15 0.13 0.14 0.16 0.18 0.19 0.21 0.25 0.30 0.32 0.32 0.30 0.32 0.32 0.32 0.32 0.34 0.35 0.36 0.38 0.41 0.43 0.44 0.45 0.47 0.47
0.16 0.11 0.09 0.09 0.09 0.08 0.08 0.08 0.09 0.10 0.11 0.13 0.13 0.16 0.18 0.18 0.16 0.16 0.15 0.14 0.12 0.12 0.12 0.13 0.14 0.16 0.20 0.22 0.23 0.23 0.24 0.23 0.23 0.24 0.30 0.34 0.34 0.36 0.39 0.41 0.46 0.47 0.45 0.44
0.20 0.12 0.12 0.11 0.07 0.06 0.06 0.06 0.07 0.09 0.11 0.11 0.12 0.15 0.15 0.15 0.13 0.13 0.15 0.15 0.12 0.11 0.12 0.12 0.13 0.13 0.14 0.18 0.21 0.23 0.22 0.22 0.22 0.21 0.25 0.32 0.36 0.37 0.41 0.44 0.49 0.53 0.52 0.48
0.14 0.11 0.09 0.08 0.06 0.05 0.05 0.05 0.05 0.07 0.08 0.08 0.08 0.10 0.12 0.12 0.13 0.13 0.13 0.13 0.11 0.11 0.12 0.12 0.13 0.14 0.14 0.16 0.19 0.21 0.22 0.24 0.24 0.24 0.27 0.31 0.33 0.34 0.35 0.37 0.41 0.47 0.50 0.50
0.08 0.08 0.07 0.06 0.06 0.06 0.05 0.05 0.04 0.05 0.05 0.06 0.07 0.08 0.09 0.10 0.12 0.14 0.15 0.15 0.14 0.12 0.11 0.12 0.12 0.12 0.12 0.13 0.16 0.19 0.22 0.25 0.24 0.25 0.29 0.31 0.34 0.35 0.33 0.31 0.32 0.34 0.39 0.45
0.06 0.06 0.07 0.05 0.05 0.05 0.05 0.04 0.04 0.04 0.04 0.05 0.07 0.08 0.09 0.11 0.14 0.16 0.16 0.15 0.15 0.14 0.12 0.11 0.11 0.12 0.12 0.13 0.14 0.17 0.20 0.22 0.22 0.24 0.27 0.29 0.31 0.35 0.34 0.31 0.30 0.28 0.29 0.35
0.06 0.05 0.06 0.05 0.04 0.04 0.05 0.05 0.05 0.06 0.06 0.07 0.09 0.10 0.11 0.13 0.15 0.17 0.16 0.16 0.15 0.14 0.13 0.11 0.11 0.11 0.12 0.14 0.15 0.16 0.18 0.22 0.22 0.22 0.24 0.27 0.29 0.31 0.33 0.30 0.29 0.27 0.27 0.28
0.09 0.08 0.08 0.07 0.07 0.06 0.06 0.06 0.07 0.07 0.08 0.08 0.10 0.12 0.13 0.14 0.16 0.17 0.17 0.16 0.16 0.16 0.15 0.13 0.13 0.12 0.12 0.14 0.16 0.17 0.18 0.20 0.23 0.22 0.23 0.25 0.27 0.29 0.32 0.33 0.32 0.29 0.27 0.32
0.10 0.12 0.12 0.12 0.11 0.09 0.08 0.08 0.09 0.08 0.09 0.09 0.09 0.10 0.12 0.14 0.16 0.17 0.17 0.16 0.17 0.17 0.16 0.16 0.16 0.15 0.14 0.14 0.17 0.18 0.20 0.19 0.20 0.20 0.21 0.25 0.28 0.29 0.29 0.30 0.31 0.30 0.28 0.32
0.10 0.13 0.14 0.13 0.12 0.12 0.11 0.11 0.11 0.11 0.11 0.11 0.12 0.13 0.14 0.15 0.15 0.17 0.19 0.18 0.18 0.18 0.19 0.18 0.20 0.17 0.14 0.16 0.20 0.20 0.20 0.21 0.21 0.21 0.22 0.26 0.28 0.26 0.26 0.27 0.29 0.30 0.29 0.29
0.13 0.14 0.16 0.16 0.15 0.14 0.14 0.13 0.12 0.12 0.12 0.12 0.13 0.14 0.16 0.17 0.17 0.18 0.18 0.18 0.19 0.20 0.21 0.21 0.20 0.16 0.16 0.18 0.23 0.20 0.20 0.22 0.24 0.24 0.26 0.26 0.26 0.26 0.26 0.28 0.28 0.29 0.28 0.29
0.15 0.16 0.16 0.17 0.18 0.17 0.17 0.16 0.15 0.14 0.13 0.13 0.14 0.15 0.16 0.17 0.17 0.17 0.17 0.18 0.17 0.17 0.17 0.20 0.19 0.17 0.19 0.23 0.27 0.23 0.22 0.24 0.25 0.26 0.27 0.27 0.28 0.29 0.29 0.29 0.30 0.30 0.30 0.30
0.16 0.16 0.17 0.17 0.17 0.17 0.17 0.15 0.15 0.16 0.15 0.15 0.15 0.15 0.15 0.16 0.16 0.16 0.16 0.16 0.16 0.18 0.17 0.16 0.16 0.20 0.26 0.29 0.26 0.24 0.24 0.26 0.28 0.29 0.29 0.28 0.29 0.30 0.31 0.31 0.32 0.32 0.32 0.32
0.15 0.14 0.14 0.15 0.15 0.16 0.16 0.16 0.16 0.16 0.17 0.17 0.17 0.17 0.17 0.17 0.17 0.17 0.17 0.16 0.16 0.17 0.16 0.16 0.20 0.25 0.29 0.27 0.24 0.23 0.25 0.27 0.28 0.28 0.28 0.29 0.29 0.31 0.32 0.33 0.32 0.31 0.32 0.31
0.13 0.12 0.13 0.13 0.14 0.14 0.15 0.16 0.16 0.16 0.16 0.16 0.16 0.16 0.17 0.18 0.18 0.17 0.17 0.17 0.18 0.18 0.17 0.18 0.22 0.24 0.25 0.22 0.21 0.22 0.24 0.25 0.27 0.28 0.28 0.30 0.30 0.31 0.31 0.30 0.29 0.27 0.27 0.28
0.11 0.11 0.11 0.12 0.12 0.12 0.13 0.15 0.15 0.15 0.15 0.15 0.15 0.15 0.15 0.17 0.17 0.17 0.15 0.15 0.16 0.17 0.16 0.16 0.19 0.20 0.20 0.19 0.19 0.21 0.22 0.23 0.26 0.28 0.28 0.28 0.28 0.29 0.29 0.28 0.27 0.26 0.24 0.23
0.08 0.08 0.08 0.10 0.11 0.12 0.13 0.15 0.17 0.16 0.15 0.16 0.15 0.14 0.13 0.13 0.13 0.14 0.15 0.16 0.16 0.17 0.16 0.15 0.16 0.18 0.19 0.18 0.19 0.20 0.21 0.21 0.23 0.23 0.22 0.24 0.25 0.27 0.26 0.25 0.24 0.24 0.23 0.22
0.05 0.06 0.06 0.07 0.09 0.10 0.11 0.13 0.16 0.17 0.17 0.16 0.16 0.14 0.13 0.13 0.14 0.15 0.16 0.16 0.16 0.16 0.15 0.15 0.17 0.18 0.19 0.19 0.20 0.20 0.20 0.20 0.20 0.20 0.21 0.23 0.24 0.25 0.24 0.24 0.24 0.23 0.23 0.22